OBJECT N, 68992

Orbit data source: Space-Track

You're viewing an Uncataloged Satellite

Recently launched and/or uncataloged satellites may have evolving metadata. Metadata may include but not limited to: Owner, Maufacturer, Bus, Motor, and Mission.

OBJECT N, 68992 is a satellite in SSO that was launched on Sun, 03 May 2026 UTC launched from the Air Force Western Test Range (AFWTR). Unknown objects in Earth's orbit typically refer to objects detected orbiting the Earth but have not yet been identified or cataloged. These objects could be anything from previously untracked satellites, spent rocket stages, debris from satellite collisions, or even natural meteoroids temporarily captured by Earth's gravity.

Loading next visibility...
Identifier
68992, 2026-100N
Orbit
SSO
Country
Flag of TBDTBD
Related business
None
Manufacturer
Unknown
Mission
Operational spacecraft
Bus & Motor
Unknown
Mass
Unknown
Launch date (UTC)
2026-05-03 (1 week ago)
Launch vehicle
Unknown
Launch site
Air Force Western Test Range (AFWTR)
Object type
Unknown
Shape & HBR
Unknown
Radar Cross Section
RCS unknown

Expand to show TLE details & history
Last TLE update: 7 hours ago

TLE from 7 hours ago
0 OBJECT N
1 68992U 26100N   26130.17626060  .00001040  00000-0  10992-3 0  9992
2 68992  97.7406  28.3340 0001734 274.5887  85.5133 14.91320558  1032
Epoch: 2026-05-10T04:13Z
TLE epoch observation values (Epoch: 2026-05-10T04:13:48.915Z)
Latitude
-0.00009°
Longitude
96.8971°
Altitude
596.764 km
Speed
7.561 km/s
True Right ascension
01h 53m 20s
True Declination
0° 00' 00"
Sunlit
Object was in daylight at epoch
Visualization orbit readout
Latitude
Unknown
Longitude
Unknown
Altitude
Unknown
Speed
Unknown
Apparent Right ascension
Unknown
Apparent Declination
Unknown
Sunlit
N/A
Visualization observer readout
Local Sidereal Time
18:56:24
Azimuth
Unknown
Elevation
Unknown
Doppler factor
Unknown
Orbital elements
Apogee altitude
592.044 km
Perigee altitude
589.627 km
Semi-major axis
6,968.973 km
Eccentricity
0.00017
Inclination
97.7406°
RAAN
28.334°
Arg. of periapsis
274.5887°
True anomaly
85.53311°
Mean anomaly
85.5133°
Eccentric anomaly
85.5232°
Mean motion
3.7307 °/min
Orbital period
96.5 mins
BSTAR
0.00010992
Loading maneuver chart data...
Computing Atmospheric mass density...
Loading historical data...
Loading historical data...
Loading historical data...
Loading historical data...
Loading historical data...
Loading historical data...
Loading historical data...

Documentation

Showing up to 5 results
|